This is the latest recevied weather packets stored in our database for station/object JA1KWV-11. If no packets are shown the sender has not sent any weather packets the latest 10 day(s).
| Time | Temp. | Humidity | Pressure | Rain* | Wind** | Luminosity | Snow |
|---|---|---|---|---|---|---|---|
| 1777560616 | 21.11° C | 72% | 1018.3 hPa | 0 mm | - | - | - |
| 1777560135 | 21.11° C | 72% | 1018.4 hPa | 0 mm | - | - | - |
| 1777559655 | 21.11° C | 72% | 1018.4 hPa | 0 mm | - | - | - |
| 1777559175 | 21.11° C | 73% | 1018.8 hPa | 0 mm | - | - | - |
| 1777558695 | 21.11° C | 71% | 1018.8 hPa | 0 mm | - | - | - |
| 1777558215 | 21.11° C | 71% | 1018.9 hPa | 0 mm | - | - | - |
| 1777557734 | 21.11° C | 71% | 1019.4 hPa | 0 mm | - | - | - |
| 1777557254 | 21.11° C | 71% | 1019.6 hPa | 0 mm | - | - | - |
| 1777556774 | 21.11° C | 71% | 1019.3 hPa | 0 mm | - | - | - |
| 1777556294 | 21.11° C | 70% | 1019.6 hPa | 0 mm | - | - | - |
| 1777555813 | 21.11° C | 69% | 1019.4 hPa | 0 mm | - | - | - |
| 1777555333 | 21.11° C | 70% | 1019.6 hPa | 0 mm | - | - | - |
| 1777554853 | 21.11° C | 71% | 1019.7 hPa | 0 mm | - | - | - |
| 1777554373 | 21.11° C | 68% | 1019.9 hPa | 0 mm | - | - | - |
| 1777553893 | 21.11° C | 71% | 1019.9 hPa | 0 mm | - | - | - |
| 1777553412 | 21.11° C | 70% | 1020.4 hPa | 0 mm | - | - | - |
| 1777552932 | 21.11° C | 70% | 1020.4 hPa | 0 mm | - | - | - |
| 1777552452 | 21.11° C | 70% | 1020.2 hPa | 0 mm | - | - | - |
| 1777551972 | 21.11° C | 71% | 1020 hPa | 0 mm | - | - | - |
| 1777551492 | 21.11° C | 70% | 1020.1 hPa | 0 mm | - | - | - |
| 1777551011 | 21.11° C | 70% | 1020.1 hPa | 0 mm | - | - | - |
| 1777550531 | 21.11° C | 69% | 1020.6 hPa | 0 mm | - | - | - |
| 1777550051 | 21.11° C | 70% | 1020.5 hPa | 0 mm | - | - | - |
| 1777549571 | 21.11° C | 69% | 1020.6 hPa | 0 mm | - | - | - |
| 1777549090 | 21.67° C | 69% | 1021.1 hPa | 0 mm | - | - | - |
* Rain since midnight (hover to see other rain measurements)
** Current wind speed in m/s (hover to see current wind gust speed)